Retour au catalogue

STARLINK-6060

ActifCommunicationsVLEO
NORAD 56794·PAYLOAD·🇺🇸 United States

Lancé May 31, 2023 depuis Vandenberg Space Force Base

Loading…

Prochains Passages (prochaines 24 heures)

TLE

FraisSource: CelesTrak SupGP

Époque: Sep 14, 2026, 20:54 UTC

1 56794C 23078AD  26257.87131944  .00004834  00000+0  40499-3 0  2574
2 56794  70.0020 207.4377 0003431 266.0015  20.6215 14.98338322    13

Suivez STARLINK-6060 en temps réel avec AllMySat

Download on the App Store